Location: Unspecified
(0.0000°N, 0.0000°E)
Time: 16:07:58
(UTC+00:00)

Courier 1B Rocket - Visible Passes

Search period start: 12 April 2021 00:00
Search period end: 22 April 2021 00:00
Orbit: 920 x 1202 km, 28.2° (Epoch: 12 April)

Date Brightness Start Highest point End Pass type
(mag) Time Alt. Az. Time Alt. Az. Time Alt. Az.
12 Apr 7.4 04:08:37 10° NNW 04:13:49 19° NNE 04:18:49 10° ENE visible
12 Apr 5.8 19:23:14 10° WSW 19:29:50 52° NNW 19:35:12 18° NE visible
12 Apr 7.6 21:19:39 10° WNW 21:21:37 15° NW 21:21:37 15° NW visible
13 Apr 7.5 03:10:22 13° N 03:12:07 14° NNE 03:15:48 10° NE visible
13 Apr 6.5 04:59:42 10° NW 05:06:45 40° NNE 05:13:23 10° E visible
13 Apr 5.3 18:22:02 10° WSW 18:28:38 77° NNW 18:35:45 10° NE visible
13 Apr 7.0 20:17:11 10° WNW 20:22:35 24° NNW 20:25:05 20° N visible
14 Apr 6.9 03:59:58 14° NNW 04:05:18 28° NNE 04:11:30 10° E visible
14 Apr 6.5 19:15:14 10° W 19:21:12 33° NNW 19:27:33 10° NE visible
14 Apr 7.7 21:13:42 10° NW 21:14:56 11° NNW 21:14:56 11° NNW visible
15 Apr 7.2 03:03:17 20° NNE 03:03:44 20° NNE 03:09:06 10° ENE visible
15 Apr 5.8 04:50:26 10° NW 04:58:02 61° NNE 05:05:12 10° ESE visible
15 Apr 6.0 18:13:42 10° WSW 18:19:58 49° NNW 18:26:40 10° NE visible
15 Apr 7.4 20:10:15 10° WNW 20:14:11 16° NNW 20:18:16 10° NNE visible
16 Apr 6.3 03:53:05 27° NNW 03:56:40 42° NNE 04:03:39 10° E visible
16 Apr 7.1 19:07:44 10° WNW 19:12:42 22° NNW 19:17:55 10° NNE visible
17 Apr 6.9 02:56:32 28° NE 02:56:32 28° NE 03:01:41 10° E visible
17 Apr 5.3 04:42:57 17° WNW 04:49:14 90° NNE 04:56:40 10° ESE visible
17 Apr 7.7 20:05:23 10° NNW 20:05:57 10° NNW 20:06:31 10° NNW visible
18 Apr 5.6 03:46:26 54° NNW 03:47:54 63° NNE 03:55:23 10° ESE visible
18 Apr 7.5 19:00:59 10° NW 19:04:20 14° NNW 19:07:47 10° N visible
19 Apr 6.9 02:49:55 29° E 02:49:55 29° E 02:53:45 10° E visible
19 Apr 5.4 04:36:20 29° W 04:40:25 62° SSW 04:47:49 10° SE visible
20 Apr 5.4 03:39:47 76° SE 03:39:47 76° SE 03:46:46 10° ESE visible
20 Apr 6.3 05:26:35 10° W 05:33:02 29° SSW 05:39:15 10° SSE visible
21 Apr 7.3 02:43:12 21° ESE 02:43:12 21° ESE 02:45:25 10° ESE visible
21 Apr 5.8 04:29:37 36° WSW 04:31:37 42° SSW 04:38:42 10° SE visible
